FENGYUN 1C DEB, 32242

Orbit data source: Space-Track

FENGYUN 1C DEB, 32242 is space debris in SSO originally from a launch on Mon, 10 May 1999 UTC launched from the Taiyaun Space Center, China (TSC). Fengyun 1C debris stems from the Chinese weather satellite Fengyun-1C, which was intentionally destroyed by a Chinese anti-satellite missile in 2007. This event dramatically increased the amount of space debris, with thousands of trackable fragments posing hazards to satellites and human spaceflight. The Fengyun 1C debris cloud has become a focal point in discussions about space sustainability and the need for international regulations to prevent the creation of new debris.

Loading next visibility...
Identifier
32242, 1999-025CWQ
Orbit
SSO
Country
Flag of CNCN / PRC
Related business
Manufacturer
Unknown
Mission
Spacecraft
Bus & Motor
Unknown
Mass
Unknown
Launch date (UTC)
1999-05-10 (27 years ago)
Launch vehicle
Unknown
Launch site
Taiyaun Space Center, China (TSC)
Object type
Payload
Rocket body
Debris
Shape & HBR
Unknown shape, 0.1 m
Radar Cross Section
Small (<0.1 m²)

Expand to show TLE details & history
Last TLE update: 3 days ago

TLE from 3 days ago
0 FENGYUN 1C DEB
1 32242U 99025CWQ 26235.39421219  .00001004  00000-0  81150-3 0  9990
2 32242  97.2636  93.4988 0159996 324.0960  34.9533 13.86132147664359
Epoch: 2026-08-23T09:27Z
TLE epoch observation values (Epoch: 2026-08-23T09:27:39.933Z)
Latitude
0.00002°
Longitude
-20.10849°
Altitude
849.741 km
Speed
7.476 km/s
True Right ascension
06h 13m 59s
True Declination
0° 00' 00"
Sunlit
Object was in daylight at epoch
Visualization orbit readout
Latitude
Unknown
Longitude
Unknown
Altitude
Unknown
Speed
Unknown
Apparent Right ascension
Unknown
Apparent Declination
Unknown
Sunlit
N/A
Visualization observer readout
Local Sidereal Time
00:05:19
Azimuth
Unknown
Elevation
Unknown
Doppler factor
Unknown
Orbital elements
Apogee altitude
1,056.434 km
Perigee altitude
822.28 km
Semi-major axis
7,317.494 km
Eccentricity
0.016
Inclination
97.2636°
RAAN
93.4988°
Arg. of periapsis
324.096°
True anomaly
36.02111°
Mean anomaly
34.9533°
Eccentric anomaly
35.48545°
Mean motion
3.46737 °/min
Orbital period
103.83 mins
BSTAR
0.0008115
Loading maneuver chart data...
Computing Atmospheric mass density...
Loading historical data...
Loading historical data...
Loading historical data...
Loading historical data...
Loading historical data...
Loading historical data...
Loading historical data...

Documentation

Showing up to 5 results
|